Location: Newark
(49.3000°N, 9.4667°E)
Time: 02:29:09
(UTC+00:00)

Transit 2A Rocket - Pass Details

Date: 20 May 2019
Orbit: 586 x 917 km, 66.7° (Epoch: 14 June)

Event Time Altitude Azimuth Distance (km) Brightness Sun altitude
Rises 00:26:39 0° 323° (NW) 3,512 8.9 -19.2°
Reaches altitude 10° 00:29:36 10° 335° (NNW) 2,533 8.3 -19.0°
Maximum altitude 00:34:36 28° 33° (NNE) 1,524 7.3 -18.8°
Drops below altitude 10° 00:39:16 10° 92° (E) 2,352 7.7 -18.5°
Sets 00:41:54 0° 104° (ESE) 3,219 8.3 -18.4°
